Theta_e
306 307 306 306 307 307 306 306 306 307 306 306 306 307 307 308 309 309 310 308 306 306 307 306 305 306 305 305 303 302 301 300 296 300 301 299 293 292 292 291 292 293 294
301 301 301 301 301 301 300 300 301 301 302 301 301 302 302 303 304 304 304 305 304 302 302 302 302 303 303 303 303 301 300 301 298 296 299 299 291 290 291 289 289 290 291
299 298 298 298 298 297 297 297 297 298 298 298 298 297 297 298 298 299 298 298 299 300 300 299 299 299 297 298 299 299 300 299 299 296 296 298 289 286 286 286 287 287 288
297 296 295 295 295 295 295 295 295 295 295 295 295 294 294 294 294 293 292 293 294 295 296 296 296 296 296 296 296 296 296 295 295 294 294 295 294 284 285 284 285 285 286
295 294 293 294 293 293 293 293 293 292 292 292 291 291 291 292 289 290 290 291 291 291 291 292 292 293 291 293 293 293 293 292 292 292 291 292 292 281 283 286 284 287 285
293 292 292 292 291 291 291 290 290 290 290 290 290 289 289 288 290 290 290 290 290 289 289 290 291 289 290 291 291 292 293 290 288 289 289 289 290 291 288 286 286 282 281
290 289 289 289 288 289 289 288 288 289 289 288 289 288 288 289 290 290 289 287 288 289 289 288 288 288 288 289 290 290 290 291 292 290 287 288 289 290 290 288 285 285 284
288 287 287 287 286 287 287 287 287 287 287 286 287 287 287 287 289 289 288 287 288 288 288 288 287 287 287 287 287 286 287 288 288 288 288 289 290 290 290 290 288 285 285
286 286 285 285 284 284 283 284 285 285 285 285 285 285 285 285 288 288 287 286 286 286 287 287 287 287 288 289 286 285 285 286 290 291 291 292 292 292 292 288 284 282 280
282 282 283 283 282 282 283 283 284 284 284 284 284 285 284 284 286 287 287 286 284 285 286 286 286 286 288 288 286 285 284 285 286 286 287 288 289 288 289 287 286 282 282
280 280 281 281 280 281 282 282 282 282 282 282 282 284 284 284 285 287 287 284 284 283 283 283 284 286 286 287 288 286 285 287 287 286 285 285 285 285 285 286 285 284 282
275 276 276 276 278 280 279 280 282 282 282 281 282 283 284 284 285 286 286 286 286 283 282 283 284 286 286 286 286 288 288 287 284 283 283 283 284 284 285 284 284 284 284
271 272 274 275 277 278 278 279 280 281 282 282 281 281 282 283 284 286 286 286 286 285 285 285 286 286 286 285 285 286 284 284 282 281 282 284 284 282 281 279 277 276 275
270 271 273 274 275 277 277 279 279 279 280 281 281 281 282 282 283 285 285 285 285 285 286 285 286 286 285 285 284 284 284 283 282 282 283 281 280 280 279 279 277 277 273
269 271 273 274 273 274 276 276 277 278 279 278 279 280 281 281 283 285 286 284 284 285 285 285 284 282 282 282 282 282 283 282 282 283 281 281 279 278 277 278 277 276 273
268 270 271 270 272 272 273 274 278 279 280 281 282 282 283 284 285 286 286 285 285 285 284 283 281 281 280 280 280 281 281 281 282 282 281 280 278 276 276 276 277 276 273
264 266 268 268 270 271 271 271 271 274 278 279 281 282 283 283 284 284 284 284 284 284 283 282 281 282 281 280 280 280 280 281 281 280 280 280 278 276 275 275 276 275 273
261 263 265 268 269 269 270 270 271 270 271 273 278 280 282 282 282 282 281 280 281 283 283 282 281 281 280 279 279 279 279 280 280 279 279 279 277 275 275 275 275 274 272
263 266 267 267 268 268 268 269 271 272 272 273 276 280 281 280 280 278 277 274 274 274 274 275 275 275 276 276 278 279 279 279 278 278 277 275 276 276 276 276 275 274 273
265 264 265 266 267 268 270 270 271 271 272 273 275 275 276 274 275 273 271 270 269 269 269 270 271 271 271 272 273 276 277 277 276 276 276 277 276 277 275 275 274 273 273
265 266 265 266 268 268 269 269 270 270 271 272 273 271 275 270 270 269 268 267 266 266 266 267 268 268 267 267 268 271 272 272 272 272 273 273 274 274 274 275 274 273 273
265 265 266 266 267 267 268 267 269 269 270 270 270 270 271 268 267 266 266 266 265 266 265 265 266 266 265 265 265 265 267 267 266 267 270 270 271 271 272 271 271 270 270
265 264 265 266 266 265 266 267 267 267 267 267 267 267 266 266 266 265 265 264 264 264 264 264 264 263 264 264 264 264 263 263 264 265 265 268 268 269 269 269 268 267 267
263 263 264 264 264 263 265 264 265 265 265 265 265 265 265 265 264 264 264 264 264 264 264 263 262 262 261 261 262 262 262 263 262 262 262 264 265 265 264 264 264 263 263
262 262 262 262 262 263 263 263 263 264 264 264 264 264 264 264 264 264 264 264 263 263 263 263 262 262 261 261 261 261 261 261 261 261 260 261 260 260 259 259 258 257 257
261 261 261 262 261 262 262 262 262 262 263 263 263 264 264 263 264 264 264 263 262 262 261 262 262 261 261 261 261 262 262 264 263 261 258 259 257 256 254 253 252 252 253
Wind_Speed
8 8 8 8 8 8 7 7 6 6 6 6 5 5 5 5 5 5 5 6 9 9 8 7 9 8 7 6 5 7 8 8 13 12 7 3 5 7 6 6 7 9 9
8 8 9 8 8 8 8 8 7 6 6 6 6 5 5 6 6 6 6 6 7 9 10 10 11 6 8 9 7 9 9 9 10 21 11 8 8 7 5 6 7 6 8
8 8 8 9 8 8 8 7 7 7 7 6 6 6 6 6 6 6 7 7 7 8 8 8 9 8 8 7 9 9 9 8 10 12 14 9 4 2 5 4 7 8 8
8 8 8 8 7 7 7 7 7 7 7 7 7 5 4 4 4 5 4 7 8 8 9 10 11 10 10 10 9 10 9 9 9 10 12 11 8 2 3 4 8 7 9
8 8 8 7 7 7 7 6 5 5 5 5 5 5 5 4 3 5 5 6 9 9 8 10 11 11 13 13 9 10 8 8 9 10 11 11 9 3 6 5 8 8 6
8 8 6 6 5 6 5 4 4 4 4 3 4 4 4 3 6 9 8 6 7 8 11 10 11 9 11 19 20 21 16 11 12 9 11 13 14 11 6 9 9 4 5
6 5 5 5 5 4 3 4 5 5 4 4 4 5 6 5 9 12 11 6 7 8 10 9 11 7 9 11 17 20 19 20 20 13 15 14 15 12 11 10 10 9 9
5 5 6 6 5 6 6 5 5 5 6 6 6 5 6 7 12 14 13 7 7 10 10 11 13 13 10 11 15 14 14 12 12 11 12 15 13 12 11 11 12 10 5
7 7 7 6 6 7 6 7 6 6 6 5 5 8 7 8 12 14 13 7 9 11 11 10 11 14 17 19 16 17 17 15 12 19 22 25 25 25 20 10 8 6 5
7 8 6 5 4 5 6 6 5 5 7 6 8 7 8 10 12 13 11 6 11 10 11 11 14 12 18 20 13 12 17 16 12 12 10 12 15 14 19 13 9 8 6
6 6 5 6 6 5 6 5 5 7 7 7 8 8 8 8 7 12 14 9 9 10 11 10 10 19 22 23 22 12 13 15 15 11 11 10 9 8 9 7 7 7 5
6 5 5 4 5 5 6 6 6 6 8 9 10 8 6 6 11 14 17 17 15 9 10 9 9 20 23 23 18 18 20 18 10 11 9 9 8 7 5 5 4 2 1
4 3 4 4 4 4 6 7 6 6 7 8 9 10 9 6 6 15 17 17 17 10 8 14 23 22 22 16 17 19 16 8 9 9 8 7 3 3 3 4 6 9 9
4 5 6 6 7 5 5 5 5 6 7 8 9 9 9 9 7 6 4 7 11 9 11 9 13 16 16 13 10 10 7 6 7 7 6 2 1 1 0 1 2 3 4
4 5 6 5 6 7 6 6 6 7 8 8 9 9 10 11 8 15 13 8 8 11 13 7 6 8 8 8 8 8 7 7 6 4 5 5 2 1 1 2 2 2 3
5 5 5 6 6 6 7 8 11 15 17 19 22 18 9 17 22 21 17 20 21 20 8 5 6 7 8 8 7 7 7 7 6 4 4 3 1 0 1 1 1 2 4
4 6 5 6 6 6 6 7 10 9 16 17 18 19 19 18 19 18 19 19 19 17 6 4 5 4 5 8 7 7 5 4 5 5 5 3 1 1 2 2 2 4 4
5 7 6 5 5 5 6 7 7 9 11 10 12 16 17 16 14 15 13 15 7 6 4 4 4 4 4 6 7 7 7 6 5 5 5 2 1 1 2 2 2 4 4
4 4 4 5 5 6 6 7 7 8 9 10 10 11 6 9 12 7 9 4 4 5 5 5 5 5 6 6 6 6 6 5 5 5 3 3 2 0 2 3 3 4 5
4 6 5 5 5 6 6 6 7 8 8 8 8 5 6 6 4 4 3 4 4 4 5 5 5 5 6 6 6 6 6 5 6 5 4 3 3 2 2 2 2 3 2
4 4 5 6 5 5 6 6 7 7 8 7 5 4 11 5 4 4 4 4 4 4 5 5 5 5 5 6 6 6 6 5 6 5 5 5 4 3 3 3 2 3 3
4 4 5 5 5 5 5 6 6 7 7 6 5 4 10 3 3 3 3 3 4 4 4 5 4 4 4 5 6 6 6 6 6 6 6 4 4 4 3 3 2 2 2
4 5 5 5 5 6 6 5 5 5 6 6 5 4 4 3 3 3 3 3 3 3 3 4 4 4 4 4 4 5 5 5 5 6 6 5 5 5 4 3 3 2 2
4 5 5 5 4 4 5 5 5 5 5 5 5 4 4 4 3 3 3 3 3 3 2 2 3 4 4 4 4 4 4 4 4 5 6 5 3 3 2 2 2 3 2
4 5 4 4 4 5 5 5 5 5 5 5 4 4 4 4 4 4 3 3 3 4 3 3 3 4 4 6 5 5 6 7 3 5 3 4 4 4 3 2 3 3 3
4 5 5 4 4 5 5 5 5 5 5 5 5 5 5 5 4 4 4 4 4 4 5 4 5 6 6 5 5 6 7 7 5 4 1 2 2 2 2 2 3 2 1
Wind_Direction
71 73 73 69 71 69 70 60 50 48 31 33 24 8 352 339 326 310 291 290 292 289 279 265 268 267 258 256 237 235 236 237 262 277 270 248 212 227 236 235 245 246 252
67 67 67 65 59 65 63 53 41 42 38 30 24 16 4 349 343 331 317 310 296 293 291 290 283 281 266 262 260 254 250 246 256 276 270 269 219 219 239 226 236 237 242
74 75 66 56 56 54 53 53 48 40 36 29 30 25 10 357 345 343 334 313 297 288 288 282 281 281 270 266 264 262 261 254 251 263 278 276 238 176 236 242 243 247 245
80 77 71 59 56 50 39 40 42 30 29 18 20 7 1 349 341 342 317 312 303 295 290 288 289 284 280 281 272 265 265 263 263 261 271 274 270 180 219 231 251 231 249
83 72 66 59 49 44 34 20 33 29 20 7 350 350 343 340 351 332 318 309 301 298 290 290 287 282 277 275 276 274 273 270 267 268 271 273 266 215 221 227 244 259 244
78 72 60 54 48 39 22 356 13 13 10 344 331 328 318 315 308 322 314 301 296 293 297 292 290 274 275 280 279 274 265 267 266 266 270 270 276 269 249 235 243 220 266
74 58 51 40 42 28 358 2 5 357 336 328 328 332 324 318 319 320 315 295 284 284 291 296 299 293 284 286 287 285 281 276 268 270 269 267 276 273 273 257 229 232 240
65 55 37 22 18 4 3 1 353 345 337 328 319 315 308 306 313 314 312 296 288 291 290 292 292 293 290 293 294 287 282 275 270 270 265 276 275 280 273 262 250 240 244
38 31 21 15 1 356 354 347 340 330 321 307 299 301 294 292 303 309 315 306 300 300 298 294 295 295 298 292 291 291 289 286 273 261 261 269 276 280 280 283 234 214 223
23 15 4 358 345 332 328 323 313 297 294 300 298 292 284 289 300 306 313 302 304 306 304 303 298 297 301 303 295 289 291 295 296 289 276 273 274 273 273 268 239 218 215
12 349 342 336 323 309 306 304 304 307 302 297 299 303 296 282 283 305 316 314 308 308 306 307 307 308 306 303 300 287 283 296 295 293 293 289 282 274 278 260 228 216 211
350 332 317 303 310 309 307 304 304 298 302 307 307 304 304 308 302 308 308 307 305 300 298 296 291 297 306 306 306 299 300 306 301 297 296 294 283 271 265 241 220 162 54
318 299 304 312 307 325 319 318 316 313 308 307 305 301 301 300 297 297 301 305 304 290 281 289 297 304 309 306 302 304 305 297 299 300 291 290 315 5 45 57 68 82 66
341 346 338 340 339 333 325 314 309 301 297 297 298 297 300 298 284 283 271 301 291 286 288 287 292 301 304 303 307 309 304 306 306 297 311 6 345 314 42 75 103 90 77
350 342 339 336 334 319 306 302 296 283 284 294 291 291 293 293 297 299 296 304 301 297 302 292 298 309 314 319 316 317 321 320 316 321 314 308 303 45 28 49 98 103 96
347 344 335 316 315 305 303 303 289 290 291 290 289 284 279 284 296 296 301 300 300 305 293 297 299 306 317 320 317 320 323 320 322 318 311 310 301 149 109 67 90 91 116
323 310 299 297 300 309 314 312 312 311 301 298 300 299 295 294 298 303 302 304 306 300 275 262 280 294 314 319 320 319 312 319 324 312 314 309 307 83 135 122 94 102 100
259 257 265 288 299 299 297 298 297 299 311 314 311 305 303 300 306 306 327 315 306 326 323 318 322 336 327 323 322 326 327 330 328 327 326 336 112 149 137 129 112 111 114
293 298 307 300 287 285 287 279 285 292 297 304 311 306 327 330 317 335 347 340 334 339 348 340 354 348 340 338 332 327 331 345 338 341 357 351 1 313 134 130 128 126 130
267 259 270 290 292 290 287 291 295 295 300 301 303 360 353 331 340 352 3 355 350 353 348 345 352 349 345 342 334 333 337 0 354 351 358 11 5 359 38 101 130 146 163
300 299 288 279 278 294 297 294 299 300 298 306 315 342 335 332 337 348 353 1 356 350 347 344 351 356 353 347 347 346 356 5 5 357 2 3 7 14 17 37 68 79 113
290 292 292 294 296 295 301 301 295 303 305 312 319 326 335 334 348 347 355 359 355 349 346 335 343 356 358 350 349 348 357 11 4 351 353 357 1 16 14 29 40 65 82
287 295 295 295 293 299 294 305 306 310 313 314 318 322 332 337 337 338 340 345 338 344 347 341 342 346 358 350 356 351 353 360 349 345 343 352 0 5 7 19 26 28 46
283 283 285 289 295 301 294 309 304 305 306 311 317 320 326 323 320 320 315 322 317 327 333 329 329 332 332 336 338 344 348 342 344 340 339 337 347 4 15 19 27 41 58
268 274 282 284 288 290 294 293 299 303 303 304 308 307 310 308 305 304 301 301 298 301 304 298 290 302 309 316 312 321 325 329 327 333 335 338 1 11 24 26 21 34 45
271 271 274 279 275 279 284 291 293 294 292 295 297 294 294 292 289 291 292 288 289 290 295 287 283 288 295 293 295 300 305 306 298 263 301 351 360 5 19 54 54 51 81